SCP
0 0 0 0 0 0 0 0 0 0 0 0 0 0 0 0 0 0 0 0 0 0 0 0 0 0 0 0 0 0 0 0 0 0 0 0 0 0 0 0 0 0 0 0 0 0 0 0 0
0 0 0 0 0 0 0 0 0 0 0 0 0 0 0 0 0 0 0 0 0 0 0 0 0 0 0 0 0 0 0 0 0 0 0 0 0 0 0 0 0 0 0 0 0 0 0 0 0
0 0 0 0 0 0 0 0 0 0 0 0 0 0 0 0 0 0 0 0 0 0 0 0 0 0 0 0 0 0 0 0 0 0 0 0 0 0 0 0 0 0 0 0 0 0 0 0 0
0 0 0 0 0 0 0 0 0 0 0 0 0 0 0 0 0 0 0 0 0 0 0 0 0 0 0 0 0 0 0 0 0 0 0 0 0 0 0 0 0 0 0 0 0 0 0 0 0
0 0 0 0 0 0 0 0 0 0 0 0 0 0 0 0 0 0 0 0 0 0 0 0 0 0 0 0 0 0 0 0 0 0 0 0 0 0 0 0 0 0 0 0 0 0 0 0 0
0 0 0 0 0 0 0 0 0 0 0 0 0 0 0 0 0 0 0 0 0 0 0 0 0 0 0 0 0 0 0 0 0 0 0 0 0 0 0 0 0 0 0 0 0 0 0 0 0
0 0 0 0 0 0 0 0 0 0 0 0 0 0 0 0 0 0 0 0 0 0 0 0 0 0 0 0 0 0 0 0 0 0 0 0 0 0 0 0 0 0 0 0 0 0 0 0 0
0 0 0 0 0 0 0 0 0 0 0 0 0 0 0 1 1 1 0 0 0 0 0 0 0 0 0 0 0 0 0 0 0 0 0 0 0 0 0 0 0 0 0 0 0 0 0 0 0
0 0 0 0 0 0 0 0 0 0 0 0 0 0 1 1 1 1 1 0 0 0 0 0 0 0 0 0 0 0 0 0 0 0 0 0 0 0 0 0 0 0 0 0 0 0 0 0 0
0 0 0 0 0 0 0 0 0 0 0 0 0 0 1 1 1 1 1 0 0 0 0 0 0 0 0 0 0 0 0 0 0 0 0 0 0 0 0 0 0 0 0 0 0 0 0 0 0
0 0 0 0 0 0 0 0 0 0 0 0 0 1 1 1 1 1 0 0 0 0 0 0 0 0 0 0 0 0 0 0 0 0 0 0 0 0 0 0 0 0 0 0 0 0 0 0 0
0 0 0 0 0 0 0 0 0 0 0 0 1 1 1 1 1 0 0 0 0 0 0 0 0 0 0 0 0 0 0 0 0 0 0 0 0 0 0 0 0 0 0 0 0 0 0 0 0
0 0 0 0 0 0 0 0 0 0 0 0 1 1 1 1 1 0 0 0 0 0 0 0 0 0 0 0 0 0 0 0 0 0 0 0 0 0 0 0 0 0 0 0 0 0 0 0 0
0 0 0 0 0 0 0 0 0 0 0 1 1 1 1 1 0 0 0 0 0 0 0 0 0 0 0 0 0 0 0 0 0 0 0 0 0 0 0 0 0 0 0 0 0 0 0 0 0
0 0 0 0 0 0 0 0 0 0 1 1 1 1 1 1 1 0 0 0 0 0 0 0 0 0 0 0 0 0 0 0 0 0 0 0 0 0 0 0 0 0 0 0 0 0 0 0 0
0 0 0 0 0 0 0 0 0 0 1 1 1 1 1 1 1 1 1 0 0 0 0 0 0 0 0 0 0 0 0 0 0 0 0 0 0 0 0 0 0 0 0 0 0 0 0 0 0
0 0 0 0 0 0 0 0 0 0 0 1 1 1 1 1 1 1 1 1 0 0 0 0 0 0 0 0 0 0 0 0 0 0 0 0 0 0 0 0 0 0 0 0 0 0 0 0 0
0 0 0 0 0 0 0 0 0 0 0 0 0 0 1 1 1 1 1 1 1 0 0 0 0 0 0 0 0 0 0 0 0 0 0 0 0 0 0 0 0 0 0 0 0 0 0 0 0
0 0 0 0 0 0 0 0 0 0 0 0 0 0 1 1 1 1 1 1 1 0 0 0 0 0 0 0 0 0 0 0 0 0 0 0 0 0 0 0 0 0 0 0 0 0 0 0 0
0 0 0 0 0 0 0 0 0 0 0 0 0 0 0 0 0 1 1 1 1 0 0 0 0 0 0 0 0 0 0 0 0 0 0 0 0 0 0 0 0 0 0 0 0 0 0 0 0
0 0 0 0 0 0 0 0 0 0 0 0 0 0 0 0 0 0 1 1 1 1 0 0 0 0 0 0 0 0 0 0 0 0 0 0 0 0 0 0 0 0 0 0 0 0 0 0 0
0 0 0 0 0 0 0 0 0 0 0 0 0 0 0 0 0 0 1 1 1 1 1 0 0 0 0 0 0 0 0 0 0 0 0 0 0 0 0 0 0 0 0 0 0 0 0 0 0
0 0 0 0 0 0 0 0 0 0 0 0 0 0 0 0 0 0 1 1 1 1 1 1 0 0 0 0 0 0 0 0 0 0 0 0 0 0 0 0 0 0 0 0 0 0 0 0 0
0 0 0 0 0 0 0 0 0 0 0 0 0 0 0 0 0 0 1 1 1 1 1 1 1 0 0 0 0 0 0 0 0 0 0 0 0 0 0 0 0 0 0 0 0 0 0 0 0
0 0 0 0 0 0 0 0 0 0 0 0 0 0 0 0 0 0 0 1 1 1 1 1 1 0 0 0 0 0 0 0 0 0 0 0 0 0 0 0 0 0 0 0 0 0 0 0 0
0 0 0 0 0 0 0 0 0 0 0 0 0 0 0 0 0 0 0 0 1 1 1 1 0 0 0 0 0 0 0 0 0 0 0 0 0 0 0 0 0 0 0 0 0 0 0 0 0
0 0 0 0 0 0 0 0 0 0 0 0 0 0 0 0 0 0 0 0 0 1 1 1 0 0 0 0 0 0 0 0 0 0 0 0 0 0 0 0 0 0 0 0 0 0 0 0 0
0 0 0 0 0 0 0 0 0 0 0 0 0 0 0 0 0 0 0 0 0 0 1 1 1 0 0 0 0 0 0 0 0 0 0 0 0 0 0 0 0 0 0 0 0 0 0 0 0
0 0 0 0 0 0 0 0 0 0 0 0 0 0 0 0 0 0 0 0 0 0 1 1 1 0 0 0 0 0 0 0 0 0 0 0 0 0 0 0 0 0 0 0 0 0 0 0 0
0 0 0 0 0 0 0 0 0 0 0 0 0 0 0 0 0 0 0 0 0 0 1 1 1 0 0 0 0 0 0 0 0 0 0 0 0 0 0 0 0 0 0 0 0 0 0 0 0
Wind_Speed
4 3 2 1 4 5 1 2 1 0 0 0 2 3 5 4 3 3 4 11 14 12 10 13 16 15 15 15 15 14 15 15 14 14 14 14 14 14 14 14 14 14 14 14 14 14 14 14 14
3 3 2 4 5 2 2 2 1 1 2 2 3 4 5 4 4 8 7 10 14 12 9 11 16 16 15 15 14 14 14 14 14 14 14 14 14 14 14 14 14 14 14 14 14 14 14 13 13
3 2 3 4 3 3 2 2 2 1 2 2 3 4 4 4 6 6 7 14 13 11 8 11 18 16 15 15 14 14 14 14 14 14 14 13 13 13 14 14 13 13 13 14 14 13 13 13 12
3 3 4 4 1 3 3 2 2 2 2 2 4 4 4 3 5 7 14 15 13 10 8 11 18 16 16 15 14 13 13 13 13 13 13 13 13 13 13 13 13 13 13 13 13 13 13 12 12
3 4 4 2 3 3 3 3 3 3 1 3 4 4 3 4 8 14 15 14 13 9 7 10 17 16 16 15 14 13 13 13 13 13 13 12 12 12 12 12 12 12 12 12 12 12 12 11 10
4 4 4 1 3 3 2 2 4 4 3 3 5 4 2 3 11 14 13 11 11 10 7 9 16 16 15 15 14 13 13 13 12 12 12 12 12 12 12 12 12 12 12 12 11 11 11 10 9
4 4 3 3 2 3 1 1 3 4 4 3 5 5 3 6 9 12 11 10 9 8 7 6 8 10 14 14 13 13 13 12 12 12 11 11 11 11 11 11 11 11 11 11 10 10 10 9 8
4 5 2 2 2 3 1 1 2 4 3 3 5 7 6 9 11 11 10 9 8 7 6 6 6 6 6 8 13 13 13 12 12 12 11 11 10 10 10 9 9 10 10 10 9 9 8 8 8
4 4 3 5 4 3 1 2 2 3 5 3 2 3 7 16 16 14 11 8 8 8 5 6 6 5 5 5 9 10 11 11 10 9 11 8 4 4 5 7 9 9 9 8 8 7 7 7 6
4 3 7 5 4 2 2 2 4 3 3 2 4 7 16 17 16 16 15 14 12 10 7 5 6 5 5 5 4 3 4 4 4 4 5 4 4 3 4 5 7 8 8 7 7 7 7 6 3
6 6 4 4 4 2 2 2 3 6 4 7 10 16 18 17 15 15 14 13 12 10 9 6 6 5 5 3 4 2 2 3 4 4 5 4 3 2 3 2 3 3 5 3 4 4 3 3 2
4 5 4 2 2 2 4 3 2 5 6 6 13 20 20 19 17 16 14 12 10 10 9 7 7 6 5 4 3 3 3 3 3 3 4 4 2 2 2 2 2 2 2 2 2 2 3 3 2
4 4 3 3 2 3 3 3 3 3 3 10 14 16 18 17 14 11 11 11 11 11 10 9 7 7 5 5 4 4 3 3 3 3 3 4 3 2 2 2 2 2 2 2 2 2 2 3 2
5 4 3 2 2 3 5 2 3 3 8 12 14 14 14 14 14 12 11 11 12 12 11 9 8 7 6 4 4 3 3 3 3 3 3 4 3 3 2 2 2 2 1 2 2 2 2 2 2
1 1 3 2 2 3 5 1 4 4 11 12 13 12 12 11 12 13 14 12 12 11 10 10 9 7 7 6 5 3 3 3 3 3 3 4 4 3 3 2 2 1 2 2 2 3 2 2 2
2 2 1 3 2 3 6 5 4 7 12 11 11 11 11 10 11 10 11 10 10 9 10 10 10 9 7 6 5 3 3 3 3 3 3 4 4 4 3 2 2 2 2 2 2 2 2 2 2
3 2 2 3 1 3 4 5 3 7 11 11 11 11 10 9 9 9 11 11 10 10 10 9 8 9 8 6 5 4 3 3 3 3 3 4 4 4 4 3 2 3 2 2 2 2 2 2 2
3 2 2 3 1 2 3 4 3 8 10 11 11 10 11 12 13 11 11 11 10 9 9 9 8 8 7 5 4 3 3 2 2 3 3 4 4 4 4 3 3 3 3 2 2 3 2 2 2
4 3 2 4 2 2 4 4 5 7 8 8 9 9 11 11 9 8 10 11 10 9 10 10 9 9 8 5 5 4 4 3 3 3 4 5 5 5 4 3 3 3 3 3 4 3 3 2 2
3 2 3 3 1 2 2 3 4 7 10 10 12 12 12 9 8 10 11 11 12 12 11 11 11 10 9 7 5 4 3 3 2 2 3 4 5 5 5 5 4 4 3 4 4 3 3 2 1
4 5 4 3 2 2 1 4 2 3 5 6 7 8 9 12 13 12 13 13 12 13 13 12 11 10 9 7 5 4 3 2 2 2 2 3 4 5 4 5 4 4 3 3 4 4 4 3 1
5 6 6 3 2 2 1 3 6 3 3 5 7 7 9 10 10 11 13 13 14 13 11 10 10 9 9 9 8 8 6 5 5 4 3 3 3 4 4 5 5 4 3 4 3 3 3 4 3
6 3 3 2 3 1 1 1 7 1 4 8 8 9 9 10 11 12 13 13 12 11 11 10 9 9 9 9 10 9 6 4 3 3 5 4 3 3 4 5 4 4 3 4 4 3 3 3 3
5 6 6 5 5 0 3 3 7 5 7 6 7 9 9 10 11 11 10 9 8 9 10 10 11 10 9 10 9 9 8 7 7 6 5 4 3 2 4 4 4 4 3 4 4 4 4 3 3
5 6 4 4 3 5 2 3 9 7 5 6 7 8 9 9 10 10 11 11 11 11 11 11 12 10 10 10 9 9 9 9 9 7 7 6 4 3 4 4 4 4 4 4 4 4 3 4 4
6 10 9 6 5 4 1 5 8 4 3 3 4 4 5 7 8 10 11 12 12 12 12 12 12 10 10 10 9 8 8 6 5 6 6 6 5 5 5 5 5 5 5 4 4 3 3 3 3
7 5 7 7 3 1 4 6 8 2 2 1 2 3 5 6 8 9 10 10 11 12 12 12 12 10 11 10 9 8 8 7 6 6 6 5 4 4 6 6 5 5 5 5 4 3 3 3 2
7 9 6 7 6 3 3 4 5 4 3 2 2 3 4 5 6 8 9 10 10 10 10 10 10 10 9 10 9 8 8 7 7 6 7 6 6 5 6 6 5 5 5 5 4 3 3 4 3
5 5 6 5 5 7 3 7 7 6 5 4 4 4 5 5 6 6 7 8 9 9 9 9 10 9 9 9 8 8 8 7 7 6 7 6 6 6 7 6 6 6 5 5 4 4 4 4 3
6 8 8 7 4 5 4 8 4 4 3 3 4 3 4 5 5 5 6 7 8 9 10 10 10 10 10 9 8 8 8 8 7 7 7 6 7 7 7 6 6 6 6 5 6 6 5 5 4
Wind_Direction
174 137 128 81 56 50 13 258 240 359 8 166 133 127 128 121 157 158 126 139 136 141 144 144 141 134 129 125 121 119 119 118 117 118 118 118 119 119 120 120 119 117 116 115 114 111 109 109 110
139 143 75 60 78 60 283 240 205 204 160 94 75 75 80 76 77 112 132 143 140 141 141 145 143 139 134 130 127 124 122 120 120 120 120 119 119 121 122 121 120 118 117 117 115 113 111 111 112
150 130 84 72 94 174 235 242 192 124 120 95 75 62 77 121 127 135 145 143 138 138 141 152 145 142 138 134 131 128 125 123 122 123 122 121 120 120 122 122 121 120 119 117 115 114 113 113 113
119 59 56 71 186 229 222 232 166 103 61 79 104 81 67 93 137 137 139 142 138 138 144 154 148 145 141 138 136 132 130 127 126 126 124 123 123 122 122 122 122 121 119 117 116 115 114 113 111
67 79 65 38 265 252 234 217 172 130 126 94 99 91 47 23 110 130 139 142 142 141 145 153 150 147 145 143 141 138 135 132 130 127 124 123 124 126 125 125 124 123 122 120 118 115 113 112 110
66 73 88 224 271 276 268 205 147 138 132 110 108 102 58 105 127 138 139 141 143 144 142 149 153 150 148 147 145 142 139 137 134 130 127 125 124 124 124 125 125 124 123 122 118 115 112 110 108
109 106 150 198 261 289 256 167 152 143 139 139 122 111 116 140 138 136 132 133 136 139 137 140 149 152 152 151 149 147 144 141 138 134 131 129 126 125 125 124 125 125 124 121 117 114 110 110 107
127 108 140 219 208 254 270 92 122 131 128 106 119 147 167 161 140 129 126 128 131 132 134 132 134 139 144 150 153 151 148 145 142 139 137 134 131 129 126 121 123 124 122 121 119 114 109 109 106
101 87 199 215 198 219 169 93 78 100 109 90 99 148 148 143 141 136 136 137 146 146 138 135 132 133 133 144 159 153 150 149 144 142 140 126 99 101 113 125 127 125 123 121 116 109 104 105 105
109 162 221 213 200 185 169 136 153 126 121 112 89 107 132 147 152 153 158 161 163 162 157 144 140 139 142 155 140 128 129 130 119 112 111 99 97 104 112 126 128 127 123 118 109 101 94 88 85
165 199 225 223 217 184 155 153 157 145 189 195 167 149 151 157 161 164 166 168 169 164 163 155 149 145 146 137 129 116 111 112 113 115 113 108 98 89 82 77 92 93 98 82 82 76 73 85 93
183 237 224 232 170 157 165 161 164 187 214 178 159 155 158 166 171 173 170 168 165 165 168 161 157 153 153 140 135 127 126 127 128 129 127 121 114 106 100 91 85 77 77 81 73 73 76 85 97
212 256 231 225 195 173 157 184 174 228 170 130 143 156 166 172 174 172 168 165 167 172 172 170 165 165 157 144 147 143 140 140 138 133 138 138 137 139 131 121 108 101 92 95 88 79 85 86 83
211 227 269 275 221 185 165 189 155 214 140 141 154 167 174 175 172 169 170 172 176 177 175 172 171 168 158 155 153 148 148 145 141 149 156 153 150 152 148 140 130 121 115 107 97 89 92 89 89
202 215 311 273 193 187 137 169 219 183 148 154 165 171 175 175 175 180 179 179 180 178 173 175 173 165 162 161 162 152 152 151 154 162 165 164 162 160 154 150 152 147 131 120 99 86 83 90 88
95 98 293 284 173 173 146 224 230 158 156 164 171 176 180 181 184 184 178 177 176 173 173 177 178 168 167 162 157 149 153 157 163 163 167 174 171 163 154 159 170 151 129 121 116 105 95 86 88
49 135 206 282 207 152 163 223 215 166 165 172 180 182 182 183 187 185 179 176 177 177 175 176 172 167 169 161 155 150 148 160 164 166 170 175 171 163 152 156 160 146 131 127 138 109 114 114 107
190 174 197 231 231 143 194 234 200 181 179 182 183 185 186 193 196 186 177 173 176 176 176 175 170 165 161 150 143 138 142 161 165 171 174 167 165 160 149 149 156 148 136 133 125 113 95 103 116
158 161 231 248 230 165 218 238 221 189 187 186 187 191 198 201 188 174 173 172 171 172 177 178 174 169 163 162 164 164 174 173 172 178 174 167 162 159 155 155 154 153 152 153 139 120 111 98 104
172 203 261 298 334 172 222 256 231 195 199 195 193 194 198 187 173 177 175 177 180 180 182 179 179 174 175 174 167 161 152 156 162 163 161 166 165 165 168 161 161 157 145 144 147 137 126 111 116
201 200 219 233 2 34 83 319 265 225 201 201 202 198 197 191 184 183 182 184 184 185 186 185 181 175 174 163 143 127 108 102 132 154 164 170 167 167 164 163 159 158 157 164 166 156 146 143 126
229 220 194 183 126 302 83 283 284 236 221 213 209 201 202 202 191 186 186 187 188 188 183 180 176 173 171 164 164 166 170 175 182 170 163 156 163 165 161 159 160 158 159 164 171 158 147 144 152
205 177 150 145 143 76 24 185 283 278 234 230 218 212 207 201 194 191 192 191 187 180 177 175 171 173 171 172 174 174 173 166 150 145 151 154 159 165 166 159 156 161 163 164 160 148 146 149 157
144 81 60 54 78 196 229 175 271 235 222 228 220 214 208 202 196 191 186 177 176 172 172 170 174 178 175 174 175 176 172 163 158 163 166 163 157 161 168 161 161 164 163 164 162 154 153 156 153
121 101 51 15 23 245 234 190 247 247 228 220 224 222 207 195 188 183 179 178 177 176 175 174 177 180 178 176 179 182 178 172 174 173 174 169 168 175 182 171 167 167 168 165 156 155 160 166 163
167 144 156 181 206 255 272 230 254 261 250 237 230 217 194 184 183 184 184 182 180 179 177 176 180 181 178 179 183 182 175 175 179 175 174 178 180 181 174 170 169 167 165 163 157 152 161 161 168
142 164 159 130 140 153 270 280 299 276 296 253 203 183 190 187 184 183 179 179 178 179 182 181 182 181 181 181 177 178 178 178 177 173 173 175 173 172 168 167 167 168 163 158 153 154 158 153 164
139 142 109 125 146 211 278 267 252 266 261 260 222 200 196 186 185 184 179 178 178 181 180 173 177 181 180 178 181 181 181 179 172 169 177 178 176 169 165 169 171 168 164 160 157 153 157 153 161
115 105 110 117 148 153 215 263 229 223 223 225 229 214 193 185 188 189 182 175 171 169 170 172 172 173 178 179 178 173 176 172 167 175 183 179 175 172 173 173 174 173 171 166 162 163 164 164 163
145 154 144 146 185 165 170 258 266 220 226 222 232 218 191 182 180 176 170 165 167 171 171 175 175 178 179 174 172 172 170 168 173 181 181 176 177 179 177 172 175 179 178 173 173 176 175 175 175